Weather in Mafra

Portugal     38°56′18″N   9°19′39″W
temp.,
°C
wind,
m/s
gust,
m/s
humid.,
%
clouds,
%
prec.,
mm/h
press.,
hPa
HPBL,
m
20 september, mon
mon2001:00+17n7149128 0.0 1021547
04:00+16n7149019 0.0 1020521
07:00+16n6128917 0.0 1020462
10:00+20n79660 0.0 1021629
13:00+24nnw66460 0.0 1020930
16:00+25nnw66450 0.0 1018918
19:00+20n612620 0.0 1018505
22:00+17n411780 0.0 1019295
21 september, tue
tue2101:00+16n34830 0.0 101979
04:00+17ene22670 0.0 101823
07:00+16ene513540 0.0 1019317
10:00+21ene711360 0.0 1019598
13:00+26ne67250 0.0 10181433
16:00+28ne56210 0.0 10162076
19:00+23n57360 0.0 1016283
22:00+17nne22620 0.0 101712
22 september, wed
wed2201:00+18ne22460 0.0 101716
04:00+16ene410420 0.0 1017195
07:00+15e410520 0.0 1017176
10:00+21e79420 0.0 1017479
13:00+27nne45270 0.0 10162060
16:00+26nnw65300 0.0 10151531
19:00+20nnw69560 0.0 1015455
22:00+16n23872 0.0 101547
23 september, thu
thu2301:00+16ne22762 0.0 101415
04:00+16ne22639 0.0 101316
07:00+15ene226687 0.0 101431
10:00+21ene465314 0.0 1014394
13:00+26ene3435100 0.0 10131608
16:00+26n133862 0.0 10111315
19:00+18nnw6118345 2.3 1013405
22:00+15nne25953 1.2 1014167
24 september, fri
fri2401:00+15e22930 1.2 101223
04:00+15se12933 0.0 101214
07:00+14ese219493 0.0 101215
10:00+19se2473100 0.0 1013337
13:00+23s345739 0.3 10131256
16:00+24sw344789 0.9 10111640
19:00+20sw3566100 0.9 1012317
22:00+18sse1177100 0.1 101312